Station 51WH0 - WHOTS - Woods Hole Ocean Time-series Image indicating link to RSS feed of recent meteorological observations for station 51WH0


Conditions at 51WH0 as of
(3:30 pm HAST on 07/13/2024)
0130 GMT on 07/14/2024:
     

Click on the graph icon in the table below to see a time series plot of the last five days of that observation.

5-day plot - Wind Direction Wind Direction (WDIR): E ( 80 deg true )
5-day plot - Wind Speed Wind Speed (WSPD): 15.5 kts
5-day plot - Atmospheric Pressure Atmospheric Pressure (PRES):30.08 in
5-day plot - Air Temperature Air Temperature (ATMP): 78.3 °F
5-day plot - Water Temperature Water Temperature (WTMP): 78.1 °F
5-day plot - Salinity Salinity (SAL): 35.10 psu
5-day plot - Dew Point Dew Point (DEWP): 69.8 °F
5-day plot - Heat Index Heat Index (HEAT): 80.6 °F
5-day plot - Wind Speed at 10 Meters Wind Speed at 10 meters (WSPD10M): 17.5 kts
5-day plot - Wind Speed at 20 Meters Wind Speed at 20 meters (WSPD20M): 19.4 kts
5-day plot -  Wind Speed, Wind Gust and Atmospheric Pressure Combined plot of Wind Speed, Gust, and Air Pressure
Previous observations
TIME
(HAST)
5-day plot - Wind Direction
WDIR
 
5-day plot - Wind Speed
WSPD
kts
5-day plot - Wind Gust
GST
kts
5-day plot - Wave Height
WVHT
ft
5-day plot - Dominant Wave Period
DPD
sec
5-day plot - Average Wave Period
APD
sec
5-day plot - Mean Wave Direction
MWD
 
5-day plot - Atmospheric Pressure
PRES
in
5-day plot - Pressure Tendency
PTDY
in
5-day plot - Air Temperature
ATMP
°F
5-day plot - Water Temperature
WTMP
°F
5-day plot - Dew Point
DEWP
°F
5-day plot - Salinity
SAL
psu
5-day plot - Visibility
VIS
nmi
5-day plot - Tide (above MLLW)
TIDE
ft
2024-07-13 02:30 pm E 15.5-----30.08- 79.0 78.3 70.3 35.10--
2024-07-13 01:30 pm E 15.5-----30.09- 78.8 78.3 69.6 35.10--
2024-07-13 12:30 pm E 15.5-----30.10- 78.8 78.1 70.3 35.10--
2024-07-13 11:30 amENE 15.5-----30.10- 78.6 78.1 69.6 35.10--
2024-07-13 10:30 amENE 15.5-----30.11- 78.4 78.1 69.6 35.10--
2024-07-13 09:30 am E 15.5-----30.12- 78.6 78.1 69.4 35.10--
2024-07-13 08:30 am E 17.5-----30.12- 78.3 78.1 70.7 35.10--
2024-07-13 07:30 am E 17.5-----30.11- 78.3 78.1 71.4 35.10--
2024-07-13 06:30 am E 17.5-----30.09- 77.7 78.1 71.6 35.10--
2024-07-13 05:30 am E 17.5-----30.08- 77.2 78.1 71.2 35.10--
2024-07-13 04:30 am E 17.5-----30.07- 75.6 78.1 72.0 35.10--
2024-07-13 03:30 amENE 15.5-----30.07- 76.5 78.1 72.1 35.10--
2024-07-13 02:30 am E 15.5-----30.08- 76.1 78.1 71.4 35.10--
2024-07-13 01:30 amENE 15.5-----30.08- 77.4 78.1 72.0 35.20--
2024-07-13 12:30 amENE 13.6-----30.10- 77.5 78.1 71.8 35.10--
2024-07-12 11:30 pm E 15.5-----30.11- 78.4 78.1 70.5 35.10--
2024-07-12 10:30 pm E 17.5-----30.12- 78.4 78.1 71.2 35.20--
2024-07-12 09:30 pm E 17.5-----30.11- 79.0 78.1 70.2 35.20--
2024-07-12 08:30 pm E 17.5-----30.11- 78.6 78.1 71.6 35.20--
2024-07-12 07:30 pmENE 15.5-----30.09- 78.3 78.1 72.0 35.20--
2024-07-12 06:30 pm E 15.5-----30.07- 78.4 78.3 72.0 35.20--
2024-07-12 05:30 pmENE 15.5-----30.06- 78.6 78.3 71.2 35.20--
2024-07-12 04:30 pm E 15.5-----30.06- 78.8 78.3 71.6 35.20--

Ocean Conditions at 51WH0 as of
(3:30 pm HAST on 07/13/2024)
0130 GMT on 07/14/2024:

These oceanographic data are displayed in rounded times.

     

Click on the graph icon in the table below to see a time series plot of the last five days of that observation.

Depth (DEPTH): 3.3 ft
5-day plot - Ocean Temperature Ocean Temperature (OTMP):78.08 °F
5-day plot - Salinity Salinity (SAL):35.10 psu
Previous observations
TIME
(HAST)
DEPTH
ft
5-day plot - Ocean Temperature
OTMP
°F
5-day plot - Conductivity
COND
mS/cm
5-day plot - Salinity
SAL
psu
5-day plot - Oxygen Concentration
O2%
%
5-day plot - Oxygen Concentration
O2PPM
ppm
5-day plot - Chlorophyll
CLCON
ug/l
5-day plot - Turbidity
TURB
FTU
5-day plot - pH
PH
 
5-day plot - Eh
EH
mv
2024-07-13 02:30 pm 3.378.26-35.10------
2024-07-13 01:30 pm 3.378.26-35.10------
2024-07-13 12:30 pm 3.378.08-35.10------
2024-07-13 11:30 am 3.378.08-35.10------
2024-07-13 10:30 am 3.378.08-35.10------
2024-07-13 09:30 am 3.378.08-35.10------
2024-07-13 08:30 am 3.378.08-35.10------
2024-07-13 07:30 am 3.378.08-35.10------
2024-07-13 06:30 am 3.378.08-35.10------
2024-07-13 05:30 am 3.378.08-35.10------
2024-07-13 04:30 am 3.378.08-35.10------
2024-07-13 03:30 am 3.378.08-35.10------
2024-07-13 02:30 am 3.378.08-35.10------
2024-07-13 01:30 am 3.378.08-35.20------
2024-07-13 12:30 am 3.378.08-35.10------
2024-07-12 11:30 pm 3.378.08-35.10------
2024-07-12 10:30 pm 3.378.08-35.20------
2024-07-12 09:30 pm 3.378.08-35.20------
2024-07-12 08:30 pm 3.378.08-35.20------
2024-07-12 07:30 pm 3.378.08-35.20------
2024-07-12 06:30 pm 3.378.26-35.20------
2024-07-12 05:30 pm 3.378.26-35.20------
2024-07-12 04:30 pm 3.378.26-35.20------

Solar Radiation Conditions at 51WH0 as of
(3:30 pm HAST on 07/13/2024)
0130 GMT on 07/14/2024:
     

Click on the graph icon in the table below to see a time series plot of the last five days of that observation.

5-day plot - Short Wave Radiation 2 Short Wave Radiation 2 (SWRAD): 237.1watts/meter2
5-day plot - Long Wave Radiation Long Wave Radiation (LWRAD): 430.0watts/meter2
Previous observations
TIME
(HAST)
5-day plot - Short Wave Radiation 1
SRAD1
w/m2
5-day plot - Short Wave Radiation 2
SRAD2
w/m2
5-day plot - Long Wave Radiation
LRAD
w/m2
2024-07-13 02:30 pm- 689.8 417.6
2024-07-13 01:30 pm- 544.1 430.2
2024-07-13 12:30 pm- 877.4 412.4
2024-07-13 11:30 am- 792.7 426.2
2024-07-13 10:30 am- 587.8 430.3
2024-07-13 09:30 am- 425.4 422.5
2024-07-13 08:30 am- 253.5 423.6
2024-07-13 07:30 am- 149.7 419.2
2024-07-13 06:30 am- 31.2 426.4
2024-07-13 05:30 am- 6.5 423.3
2024-07-13 04:30 am- 4.8 412.4
2024-07-13 03:30 am- 5.1 402.7
2024-07-13 02:30 am- 5.1 415.5
2024-07-13 01:30 am- 5.3 412.8
2024-07-13 12:30 am- 4.6 415.3
2024-07-12 11:30 pm- 5.2 414.3
2024-07-12 10:30 pm- 5.0 424.3
2024-07-12 09:30 pm- 5.3 421.9
2024-07-12 08:30 pm- 5.5 430.1
2024-07-12 07:30 pm- 8.1 428.2
2024-07-12 06:30 pm- 56.9 429.8
2024-07-12 05:30 pm- 197.3 425.9
2024-07-12 04:30 pm- 499.6 403.8